This is the latest recevied weather packets stored in our database for station/object KE5YIM-13. If no packets are shown the sender has not sent any weather packets the latest 1 day(s).
| Time | Temp. | Humidity | Pressure | Rain* | Wind** | Luminosity | Snow |
|---|---|---|---|---|---|---|---|
| 1836274582 | 14.44° C | 82% | 1020.3 hPa | 0 mm | 0 m/s | 0 W/m² | - |
| 1836274436 | 14.44° C | 82% | 1020.5 hPa | 0 mm | 0 m/s | 0 W/m² | - |
| 1836274281 | 14.44° C | 82% | 1020.1 hPa | 0 mm | 0 m/s | 0 W/m² | - |
| 1836274134 | 14.44° C | 82% | 1020.3 hPa | 0 mm | 0 m/s | 0 W/m² | - |
| 1836273980 | 14.44° C | 83% | 1020.3 hPa | 0 mm | 0 m/s | 0 W/m² | - |
| 1778049137 | 14.44° C | 85% | 1011.8 hPa | 0 mm | 1.34 m/s, 169° | 0 W/m² | - |
| 1778048835 | 14.44° C | 85% | 1012 hPa | 0 mm | 1.79 m/s, 206° | 0 W/m² | - |
| 1778048532 | 14.44° C | 85% | 1012 hPa | 0 mm | 1.34 m/s, 203° | 0 W/m² | - |
| 1778048228 | 14.44° C | 85% | 1012 hPa | 0 mm | 1.34 m/s, 207° | 0 W/m² | - |
| 1778047926 | 14.44° C | 84% | 1011.9 hPa | 0 mm | 0.89 m/s, 154° | 0 W/m² | - |
| 1778047625 | 14.44° C | 84% | 1011.8 hPa | 0 mm | 1.34 m/s, 206° | 0 W/m² | - |
| 1778047321 | 14.44° C | 84% | 1011.9 hPa | 0 mm | 0.89 m/s, 264° | 0 W/m² | - |
| 1778047018 | 14.44° C | 84% | 1012 hPa | 0 mm | 1.79 m/s, 199° | 0 W/m² | - |
| 1778046715 | 15° C | 83% | 1012 hPa | 0 mm | 1.34 m/s, 249° | 0 W/m² | - |
| 1778046412 | 15° C | 83% | 1012.1 hPa | 0 mm | 1.34 m/s, 251° | 0 W/m² | - |
| 1778046107 | 15° C | 83% | 1012.1 hPa | 0 mm | 1.34 m/s, 176° | 0 W/m² | - |
| 1778045805 | 15° C | 83% | 1012.1 hPa | 0 mm | 0.45 m/s, 113° | 0 W/m² | - |
| 1778045504 | 15° C | 83% | 1012.1 hPa | 0 mm | 0.89 m/s, 232° | 0 W/m² | - |
| 1778045202 | 15° C | 82% | 1012.2 hPa | 0 mm | 0.45 m/s, 106° | 0 W/m² | - |
| 1778044900 | 15° C | 82% | 1012 hPa | 0 mm | 1.34 m/s, 215° | 0 W/m² | - |
| 1778044597 | 15.56° C | 82% | 1012.1 hPa | 0 mm | 0.45 m/s, 128° | 0 W/m² | - |
| 1778044293 | 15.56° C | 81% | 1012.1 hPa | 0 mm | 0.89 m/s, 209° | 0 W/m² | - |
| 1778043991 | 15.56° C | 81% | 1012 hPa | 0 mm | 0.89 m/s, 196° | 0 W/m² | - |
| 1778043688 | 15.56° C | 81% | 1012.2 hPa | 0 mm | 1.34 m/s, 138° | 0 W/m² | - |
| 1778043385 | 15.56° C | 81% | 1012.2 hPa | 0 mm | 0.89 m/s, 148° | 0 W/m² | - |
* Rain latest hour (hover to see other rain measurements)
** Current wind speed in m/s (hover to see current wind gust speed)